METEOSAT-12 (MTG-I1)

Last updated on Sun Jun 21 2026 00:02:47 GMT+0000 (Coordinated Universal Time)

1 54743U 22170C 26171.24937015 -.00000013 00000+0 00000+0 0 9996 2 54743 0.7421 23.5307 0003320 70.9892 263.3203 1.00273524 13009
UTC large
Height (km)
Speed (km/s)
/
Latitude / Longitude
Inclination (degrees)
Orbital Period (minutes)
Azimuth
Elevation
Range (km)
Doppler Factor

Next 0 passes for location: London (51.5072 / 0.1276)

No passes found over London.
METEOSAT-12 (MTG-I1)